Bet Shop Rosarnese

La Rosarnese soffre ma poi batte la Sangiorgese [FOTO]

Pazza partita al Giovanni Paolo II di Rosarno, dove Rosarnese e Sangiorgese hanno dato vita ad una sfida scoppiettante e ricca di colpi di scena come testimonia il risultato finale di 4-3. Novanta minuti...

Rosarnese vittoria al fotofinish sul campo dello Sport Palmi [FOTO]

Buona gara giocata sul rettangolo del Lopresti, tra Sport Palmi e Rosarnese in una giornata piovosa, finita a favore della squadra ospite guidata dal tecnico Zungri. Partita equilibrata nel primo tempo, con gioco prevalentemente sviluppato...

La Rosarnese battezza il ritorno nel suo stadio con una vittoria [FOTO]

Seconda vittoria su due per la Rosarnese, che batte il Saline Joniche imponendosi per 2-1. Per il ritorno a casa, sul “Giovanni Paolo II”, da segnalare la presenza sugli spalti dei ragazzini del settore...

A Rosarno riapre lo stadio “Giovanni Paolo II”

Dopo più di un anno di lavori che hanno riguardato il manto erboso, l’impianto d’illuminazione e le recinzioni, finalmente lo stadio “Giovanni Paolo II” di Rosarno viene ufficialmente riaperto. Grande entusiasmo dunque tra le...

La Rosarnese incassa la terza vittoria battendo la Juventus Club

Terza vittoria consecutiva per i Giovanissimi Under 15 della Rosarnese, che nella gara di domenica sorsa hanno superato sul neutro di San Ferdinando la Juventus Club per 2-0 e si trovano in testa a...
DataCasaRisultatiTrasfertaOra
2022-05-08 10:00:0008/05/22- 10:00:0010:00
2022-05-01 09:30:0001/05/221 - 1 09:30:009:30
2022-04-24 09:30:0024/04/226 - 3 09:30:009:30
2022-04-10 10:00:0010/04/221 - 1 10:00:0010:00
2022-03-27 09:30:0027/03/22- 09:30:009:30
2022-03-20 09:30:0020/03/223 - 2 09:30:009:30
2022-03-13 10:00:0013/03/22- 10:00:0010:00
2022-03-06 09:30:0006/03/227 - 1 09:30:009:30
2022-02-27 09:30:0027/02/224 - 2 09:30:009:30
2022-02-20 09:30:0020/02/220 - 2 09:30:009:30
2022-02-13 10:00:0013/02/220 - 3 10:00:0010:00
2022-02-06 09:30:0006/02/223 - 3 09:30:009:30
2021-12-12 09:30:0012/12/216 - 3 09:30:009:30
2021-12-03 20:30:0003/12/213 - 5 20:30:0020:30
2021-11-28 09:30:0028/11/215 - 1 09:30:009:30
2021-11-20 14:30:0020/11/211 - 3 14:30:0014:30
2020-05-02 15:30:0002/05/20- 15:30:0015:30
2020-04-25 10:00:0025/04/20- 10:00:0010:00
2020-04-18 15:30:0018/04/20- 15:30:0015:30
2020-03-29 10:00:0029/03/20- 10:00:0010:00
2020-03-21 14:30:0021/03/20- 14:30:0014:30
2020-03-15 14:30:0015/03/20- 14:30:0014:30
2020-02-29 14:30:0029/02/202 - 0 14:30:0014:30
2020-02-22 14:30:0022/02/202 - 1 14:30:0014:30
2020-02-16 10:00:0016/02/200 - 7 10:00:0010:00
2020-02-01 14:30:0001/02/200 - 2 14:30:0014:30
2020-01-25 14:30:0025/01/205 - 1 14:30:0014:30
2020-01-19 09:30:0019/01/203 - 3 09:30:009:30
2020-01-11 17:00:0011/01/202 - 2 17:00:0017:00
2019-12-22 10:00:0022/12/190 - 2 10:00:0010:00
2019-12-14 14:30:0014/12/192 - 0 14:30:0014:30
2019-12-01 09:30:0001/12/192 - 3 09:30:009:30
2019-11-24 09:30:0024/11/190 - 3 09:30:009:30
2019-11-16 14:30:0016/11/199 - 2 14:30:0014:30